Location: Newark
(52.3500°N, 175.9667°E)
Time: 06:09:07
(UTC+00:00)

S-56A Canister/Altair - Pass Details

Date: 22 April 2021
Orbit: 631 x 2501 km, 38.9° (Epoch: 12 May)

Event Time Altitude Azimuth Distance (km) Brightness Sun altitude
Rises 10:36:59 0° 220° (SW) 4,864 11.4 -22.0°
Enters shadow 10:40:13 - 211° (SSW) 3,902 10.8 -22.2°
Reaches altitude 10° 10:41:41 10° 205° (SSW) 3,492 - -22.3°
Maximum altitude 10:47:06 19° 165° (SSE) 2,428 - -22.6°
Drops below altitude 10° 10:51:25 10° 122° (ESE) 2,672 - -22.9°
Sets 10:54:24 0° 104° (ESE) 3,386 - -23.0°
